Home   Weather   London   Past weeks

Flag for United Kingdom Past Weather in London, England, United Kingdom — Yesterday and Last 2 Weeks

Now
61 °F

Clear.


Feels Like: 61 °F
Forecast: 54 / 65 °F
Wind: 13 mph from West

Location: Northolt

Current Time: Sep 29, 2016 at 7:54:49 PM

Latest Report: Sep 29, 2016 at 6:50 PM


Visibility: 10 mi

Pressure: 29.95 "Hg

Humidity: 52%

Dew Point: 43 °F

Location of LondonLocation

Past Weather in London — Graph

°F

London Temperature Yesterday

Maximum temperature yesterday: 72 °F (at 2:50 PM)
Minimum temperature yesterday: 54 °F (at 3:50 AM)
Average temperature yesterday: 62 °F

High & Low Weather Summary for the Past Weeks

 TemperatureHumidityPressure
High82 °F (Sep 15, 2:50 PM)100% (Sep 20, 12:50 AM)30.27 "Hg (Sep 20, 12:50 AM)
Low46 °F (Sep 23, 4:50 AM)43% (Sep 23, 12:50 PM)29.77 "Hg (Sep 15, 1:50 PM)
Average61 °F78%30.07 "Hg
* Reported Sep 14 5:50 PM — Sep 29 5:50 PM, London, Weather by CustomWeather, © 2016

Note: Actual official high and low records may vary slightly from our data, if they occured in-between our weather recording intervals... More about our weather records

Advertising

London Weather History for the Previous 24 Hours

Scroll right to see more
 ConditionsComfort  
Time TempWeatherWind HumidityBarometerVisibility
5:50 PM
Thu, Sep 29
63 °FPartly sunny.15 mph49%29.95 "HgN/A
4:50 PM64 °FPartly sunny.20 mph46%29.92 "HgN/A
3:50 PM64 °FPartly sunny.18 mph52%29.92 "HgN/A
2:50 PM66 °FPartly sunny.16 mph49%29.92 "HgN/A
1:50 PM64 °FPartly sunny.15 mph56%29.92 "HgN/A
12:50 PM66 °FPartly sunny.16 mph60%29.95 "HgN/A
11:50 AM61 °FPartly sunny.13 mph83%29.95 "HgN/A
10:50 AM59 °FPartly sunny.13 mph88%29.95 "HgN/A
9:50 AM61 °FLight rain. Partly sunny.13 mph83%29.95 "HgN/A
8:50 AM63 °FDrizzle. Broken clouds.17 mph88%29.95 "HgN/A
7:50 AM63 °FLight rain. Partly sunny.15 mph88%29.95 "HgN/A
6:50 AM63 °FPassing clouds.14 mph88%29.95 "HgN/A
5:50 AM63 °FPassing clouds.16 mph88%29.98 "HgN/A
4:50 AM63 °FOvercast.15 mph88%29.98 "HgN/A
3:50 AM64 °FOvercast.13 mph88%30.01 "HgN/A
2:50 AM64 °FOvercast.12 mph88%30.04 "HgN/A
1:50 AM64 °FOvercast.14 mph83%30.07 "HgN/A
12:50 AM63 °FLow clouds.10 mph88%30.09 "HgN/A
11:50 PM
Wed, Sep 28
63 °FLow clouds.15 mph88%30.09 "HgN/A
10:50 PM63 °FPassing clouds.15 mph88%30.12 "HgN/A
9:50 PM63 °FPassing clouds.13 mph88%30.15 "HgN/A
8:50 PM63 °FPassing clouds.14 mph88%30.15 "HgN/A
7:50 PM64 °FOvercast.12 mph83%30.15 "HgN/A
Weather by CustomWeather, © 2016

See weather overviewHow to use our weather pages